Preview of NWS' New Version of Forecast
This preview is not operational and should not be used for support decisions.

Regional Weather Roundup (RWR)

Issued by Gray - Portland, ME (GYX)

                            
000
ASUS41 KGYX 240305
RWRGYX
WEATHER ROUNDUP FOR MAINE AND NEW HAMPSHIRE
NATIONAL WEATHER SERVICE GRAY ME
1100 PM EDT SUN JUN 23 2019

MEZ002-005-006-010-012-015-018-020-021-024-026-027-029-240400-
MAINE
  
CITY           SKY/WX    TMP DP  RH WIND       PRES   REMARKS
PORTLAND       FAIR      70  45  40 W8        29.74S                  
SANFORD        FAIR      60  50  69 SW3       29.77R                  
BAR HARBOR     MOCLDY    57  56  96 CALM      29.71R                  
WISCASSET      FAIR      60  52  74 CALM      29.73R                  
ROCKLAND       FAIR      59  54  83 W3        29.71R                  
FRYEBURG       FAIR      74  43  32 W9G23     29.77R                  
LEWISTONAUBURN FAIR      68  47  46 CALM      29.75R                  
AUGUSTA        FAIR      69  47  45 NW3       29.74R                  
WATERVILLE     FAIR      69  46  43 NW6       29.71R                  
BANGOR         MOCLDY    61  53  75 NW7       29.71R                  
GREENVILLE       N/A     62  40  44 N12       29.75R                  
MILLINOCKET    FAIR      62  40  44 CALM      29.74R                  
HOULTON        FAIR      50  44  80 CALM      29.72R                  
PRESQUE ISLE   FAIR      52  40  63 NW5       29.75R                  
FRENCHVILLE    FAIR      55  35  47 NW6       29.75R                  
CARIBOU        FAIR      54  38  54 NW7       29.74R                  
$$

NHZ002-005-008-009-011-012-014-240400-
NEW HAMPSHIRE
  
CITY           SKY/WX    TMP DP  RH WIND       PRES   REMARKS
PORTSMOUTH     PTCLDY    69  48  46 W6        29.76R                  
ROCHESTER      FAIR      67  47  48 CALM      29.77S                  
NASHUA         FAIR      68  58  70 W3        29.81R                  
MANCHESTER     FAIR      71  52  50 CALM      29.78R                  
CONCORD        FAIR      65  48  54 CALM      29.80R                  
LACONIA        FAIR      64  49  57 W3        29.80S                  
PLYMOUTH       FAIR      61  49  65 CALM      29.80R                  
BERLIN         FAIR      54  48  80 CALM      29.80R                  
WHITEFIELD     FAIR      60  46  59 S3        29.81R                  
JAFFREY        FAIR      70  52  52 VRB5      29.85R                  
KEENE          FAIR      65  56  72 CALM      29.83R                  
LEBANON        FAIR      59  51  75 S3        29.82R                  
MT WASHINGTON  PTCLDY    45  37  76 NW55G68     N/A                   
$$

VTZ005-007-008-240400-
VERMONT
  
CITY           SKY/WX    TMP DP  RH WIND       PRES   REMARKS
ST JOHNSBURY     N/A     60  51  72 MISG      29.79S                  
MONTPELIER     FAIR      66  46  48 NW5       29.88R                  
BURLINGTON     FAIR      72  47  40 W8        29.83R                  
$$

MAZ007-012-024-CTZ003-RIZ002-NYZ038-NYZ072-240400-
SOUTHERN NEW ENGLAND AND NY
  
CITY           SKY/WX    TMP DP  RH WIND       PRES   REMARKS
BOSTON         MOCLDY    78  54  43 W14       29.78R                  
WORCESTER      FAIR      68  53  58 W12       29.85R                  
NANTUCKET      FAIR      64  58  80 W17G26    29.80S                  
PROVIDENCE     FAIR      70  62  76 W7        29.82R                  
HARTFORD       MOCLDY    73  50  44 NW5       29.83S                  
ALBANY         FAIR      70  48  45 W12       29.88R                  
NEW YORK CITY  FAIR      80  51  36 W10G22    29.86S                  
$$

ANZ081-ANZ082-ANZ150-NHZ014-MEZ023>029-240400-
COASTAL MARINE OBSERVATIONS
  
STATION/POSITION TIME  TEMP    WIND        PRES    WAVE
                       AIR SEA DIR/SP/G            HT/PER
                 (UTC) (F)     (DEG/KT/KT) (MB)    (FT/S)
ISLE OF SHOALS   0200   77     310/ 17/ 17 1006.8R
JEFFREYS LEDGE   0238      58                N/A     1/ 3
$$

.............KEY..............
   WCI - WIND CHILL
   TC  - TEMPERATURE IN CELSIUS
   VSB - VISIBILITY IN MILES
   HX  - HEAT INDEX
   FAIR- INDICATES FEW OR NO CLOUDS BELOW 12,000 FT, WITH NO 
         SIGNIFICANT WEATHER AND/OR OBSTRUCTIONS TO VISIBILITY.